EJU53L LSGG-LEAL

Flight info

Callsign EJU53L
Flight time 1h 45m
Altitude 37000
Route BALSI DCT RETNO DCT TUPOX/N0441F390 DCT MTG DCT DIVKO DCT VATIR DCT PIVUS DCT SULID DCT SISMO DCT AKAMU DCT ADX DCT OKITI DCT IBEBA DCT BAVER M603 GERVU
Aircraft A20N/M-SDE2E3FGHIJ1RWXYZ/LB1G1

Departure

Time 2026-05-04 17:55
Airport Geneva International Airport (LSGG)

Arrival

Time 2026-05-04 19:41
Airport Alicante-Elche Miguel Hernández Airport (LEAL)
Time Latitude Longitude Altitude Speed Heading
2026-05-04 17:17 46.23007 6.10532 1409 ft 0 kts 139°
2026-05-04 17:44 46.23020 6.10514 1408 ft 4 kts 123°
2026-05-04 17:44 46.23029 6.10479 1409 ft 4 kts 86°
2026-05-04 17:44 46.23022 6.10446 1414 ft 2 kts 47°
2026-05-04 17:44 46.23020 6.10444 1414 ft 0 kts 46°
2026-05-04 17:48 46.23039 6.10471 1411 ft 9 kts 46°
2026-05-04 17:48 46.23099 6.10561 1410 ft 15 kts 45°
2026-05-04 17:48 46.23182 6.10681 1409 ft 18 kts 44°
2026-05-04 17:48 46.23269 6.10781 1403 ft 15 kts 21°
2026-05-04 17:49 46.23369 6.10866 1404 ft 19 kts 45°
2026-05-04 17:49 46.23445 6.10972 1399 ft 16 kts 44°
2026-05-04 17:49 46.23529 6.11096 1392 ft 17 kts 44°
2026-05-04 17:49 46.23592 6.11159 1396 ft 8 kts 354°
2026-05-04 17:50 46.23636 6.11116 1396 ft 8 kts 321°
2026-05-04 17:50 46.23675 6.11071 1402 ft 6 kts 340°
2026-05-04 17:50 46.23717 6.11096 1405 ft 8 kts 38°
2026-05-04 17:50 46.23776 6.11180 1397 ft 16 kts 46°
2026-05-04 17:51 46.23869 6.11318 1405 ft 21 kts 46°
2026-05-04 17:51 46.23986 6.11486 1393 ft 26 kts 44°
2026-05-04 17:51 46.24109 6.11671 1385 ft 27 kts 50°
2026-05-04 17:51 46.24250 6.11874 1381 ft 30 kts 44°
2026-05-04 17:52 46.24370 6.12054 1383 ft 20 kts 45°
2026-05-04 17:52 46.24469 6.12199 1383 ft 21 kts 45°
2026-05-04 17:52 46.24565 6.12344 1379 ft 20 kts 46°
2026-05-04 17:52 46.24672 6.12500 1376 ft 24 kts 44°
2026-05-04 17:53 46.24764 6.12632 1373 ft 15 kts 43°
2026-05-04 17:53 46.24872 6.12705 1371 ft 19 kts 15°
2026-05-04 17:53 46.24983 6.12699 1371 ft 15 kts 316°
2026-05-04 17:53 46.24962 6.12590 1372 ft 6 kts 225°
2026-05-04 17:54 46.24961 6.12589 1373 ft 0 kts 225°
2026-05-04 17:54 46.24961 6.12587 1373 ft 1 kts 227°
2026-05-04 17:54 46.24861 6.12438 1376 ft 52 kts 226°
2026-05-04 17:54 46.24459 6.11850 1383 ft 109 kts 226°
2026-05-04 17:55 46.23821 6.10916 1405 ft 150 kts 225°
2026-05-04 17:55 46.22999 6.09798 1818 ft 163 kts 221°
2026-05-04 17:55 46.22164 6.08693 2618 ft 164 kts 221°
2026-05-04 17:55 46.21299 6.07609 3416 ft 167 kts 218°
2026-05-04 17:56 46.20394 6.06374 3932 ft 184 kts 223°
2026-05-04 17:56 46.19494 6.04991 4408 ft 199 kts 224°
2026-05-04 17:56 46.18473 6.03671 5042 ft 199 kts 206°
2026-05-04 17:56 46.17115 6.03221 5646 ft 208 kts 186°
2026-05-04 17:57 46.15593 6.03080 6116 ft 231 kts 184°
2026-05-04 17:57 46.13916 6.02972 6640 ft 252 kts 184°
2026-05-04 17:57 46.12128 6.02836 7378 ft 261 kts 185°
2026-05-04 17:57 46.10294 6.02671 8234 ft 267 kts 185°
2026-05-04 17:58 46.08421 6.02484 9127 ft 272 kts 186°
2026-05-04 17:58 46.06518 6.02286 10030 ft 277 kts 186°
2026-05-04 17:58 46.04531 6.02074 10590 ft 294 kts 186°
2026-05-04 17:58 46.02431 6.01847 10881 ft 317 kts 186°
2026-05-04 17:59 46.00176 6.01605 11450 ft 328 kts 186°
2026-05-04 17:59 45.97888 6.01364 12304 ft 331 kts 186°
2026-05-04 17:59 45.93225 6.00874 13928 ft 339 kts 187°
2026-05-04 18:00 45.90861 6.00623 14692 ft 342 kts 186°
2026-05-04 18:00 45.88490 6.00375 15465 ft 344 kts 186°
2026-05-04 18:00 45.86096 6.00123 16215 ft 345 kts 186°
2026-05-04 18:00 45.83683 5.99869 16945 ft 349 kts 186°
2026-05-04 18:01 45.81257 5.99612 17681 ft 352 kts 186°
2026-05-04 18:01 45.78797 5.99351 18397 ft 355 kts 186°
2026-05-04 18:01 45.76328 5.99090 19031 ft 358 kts 186°
2026-05-04 18:02 45.71332 5.98561 20278 ft 363 kts 186°
2026-05-04 18:02 45.68799 5.98293 20882 ft 365 kts 186°
2026-05-04 18:02 45.66255 5.98025 21438 ft 369 kts 186°
2026-05-04 18:02 45.63688 5.97754 22003 ft 372 kts 186°
2026-05-04 18:03 45.61099 5.97481 22563 ft 376 kts 186°
2026-05-04 18:03 45.58463 5.97203 23165 ft 379 kts 186°
2026-05-04 18:03 45.55825 5.96925 23712 ft 383 kts 186°
2026-05-04 18:03 45.53156 5.96646 24200 ft 385 kts 186°
2026-05-04 18:04 45.50474 5.96365 24675 ft 388 kts 186°
2026-05-04 18:04 45.47776 5.96014 25140 ft 390 kts 189°
2026-05-04 18:04 45.42429 5.94432 26018 ft 394 kts 194°
2026-05-04 18:05 45.39764 5.93589 26469 ft 396 kts 194°
2026-05-04 18:05 45.37069 5.92743 26924 ft 399 kts 194°
2026-05-04 18:05 45.34346 5.91892 27329 ft 401 kts 194°
2026-05-04 18:05 45.31614 5.91041 27773 ft 403 kts 194°
2026-05-04 18:06 45.26102 5.89326 28584 ft 408 kts 194°
2026-05-04 18:06 45.23316 5.88460 28949 ft 410 kts 194°
2026-05-04 18:06 45.20485 5.87581 29321 ft 413 kts 194°
2026-05-04 18:07 45.17708 5.86720 29674 ft 415 kts 194°
2026-05-04 18:07 45.14883 5.85846 30038 ft 417 kts 194°
2026-05-04 18:07 45.12043 5.84967 30360 ft 419 kts 194°
2026-05-04 18:07 45.09188 5.84085 30687 ft 421 kts 194°
2026-05-04 18:08 45.06326 5.83201 31002 ft 422 kts 194°
2026-05-04 18:08 45.03454 5.82315 31384 ft 423 kts 194°
2026-05-04 18:08 45.00579 5.81428 31822 ft 422 kts 194°
2026-05-04 18:08 44.97723 5.80550 32309 ft 420 kts 194°
2026-05-04 18:09 44.92041 5.78806 33169 ft 416 kts 195°
2026-05-04 18:09 44.86388 5.77073 33966 ft 414 kts 195°
2026-05-04 18:10 44.83580 5.76214 34282 ft 413 kts 195°
2026-05-04 18:10 44.80768 5.75353 34556 ft 413 kts 195°
2026-05-04 18:10 44.77959 5.74494 34829 ft 413 kts 195°
2026-05-04 18:10 44.75146 5.73636 35080 ft 414 kts 195°
2026-05-04 18:11 44.72336 5.72779 35332 ft 414 kts 195°
2026-05-04 18:11 44.69524 5.71922 35578 ft 413 kts 195°
2026-05-04 18:11 44.66714 5.71065 35819 ft 414 kts 195°
2026-05-04 18:11 44.63899 5.70208 36067 ft 413 kts 195°
2026-05-04 18:12 44.61086 5.69353 36304 ft 414 kts 195°
2026-05-04 18:12 44.58280 5.68501 36555 ft 413 kts 195°
2026-05-04 18:12 44.55470 5.67649 36775 ft 413 kts 195°
2026-05-04 18:12 44.52652 5.66795 36970 ft 414 kts 195°
2026-05-04 18:13 44.47025 5.65093 37028 ft 412 kts 195°
2026-05-04 18:14 44.38631 5.62509 37036 ft 411 kts 199°
2026-05-04 18:14 44.33279 5.59799 37034 ft 408 kts 205°
2026-05-04 18:15 44.22685 5.53974 37032 ft 409 kts 204°
2026-05-04 18:16 44.17385 5.51080 37024 ft 409 kts 204°
2026-05-04 18:16 44.12093 5.48196 37026 ft 408 kts 204°
2026-05-04 18:17 44.04160 5.43881 37017 ft 408 kts 204°
2026-05-04 18:18 43.96234 5.39584 37016 ft 408 kts 204°
2026-05-04 18:18 43.90949 5.36723 37010 ft 407 kts 205°
2026-05-04 18:19 43.83078 5.32472 36997 ft 407 kts 205°
2026-05-04 18:19 43.77794 5.29625 36988 ft 407 kts 205°
2026-05-04 18:20 43.72536 5.26798 36974 ft 405 kts 205°
2026-05-04 18:20 43.67300 5.23988 36970 ft 404 kts 205°
2026-05-04 18:21 43.62061 5.21181 36966 ft 404 kts 205°
2026-05-04 18:21 43.56827 5.18382 36967 ft 402 kts 205°
2026-05-04 18:22 43.51616 5.15600 36992 ft 402 kts 205°
2026-05-04 18:22 43.46393 5.12818 36994 ft 402 kts 205°
2026-05-04 18:23 43.41188 5.10026 36995 ft 401 kts 207°
2026-05-04 18:23 43.36280 5.06492 36991 ft 397 kts 215°
2026-05-04 18:24 43.32476 5.02910 36987 ft 396 kts 217°
2026-05-04 18:24 43.27944 4.98615 36999 ft 397 kts 217°
2026-05-04 18:25 43.24929 4.95776 37250 ft 397 kts 217°
2026-05-04 18:25 43.23393 4.94333 37394 ft 396 kts 217°
2026-05-04 18:25 43.21116 4.92197 37600 ft 396 kts 217°
2026-05-04 18:25 43.18851 4.90073 37791 ft 396 kts 217°
2026-05-04 18:26 43.16568 4.87934 37978 ft 396 kts 217°
2026-05-04 18:26 43.14296 4.85807 38176 ft 395 kts 217°
2026-05-04 18:26 43.12025 4.83683 38349 ft 395 kts 217°
2026-05-04 18:26 43.09764 4.81569 38529 ft 395 kts 217°
2026-05-04 18:27 43.07492 4.79448 38683 ft 395 kts 217°
2026-05-04 18:27 43.05186 4.77385 38794 ft 396 kts 214°
2026-05-04 18:27 43.02793 4.75525 38903 ft 397 kts 212°
2026-05-04 18:27 43.00368 4.73698 38958 ft 397 kts 212°
2026-05-04 18:28 42.95542 4.70050 38952 ft 396 kts 212°
2026-05-04 18:28 42.90737 4.66414 38948 ft 395 kts 212°
2026-05-04 18:29 42.85899 4.62757 38946 ft 395 kts 212°
2026-05-04 18:29 42.81086 4.59126 38947 ft 395 kts 212°
2026-05-04 18:30 42.73884 4.53705 38939 ft 394 kts 212°
2026-05-04 18:31 42.69079 4.50097 38935 ft 394 kts 212°
2026-05-04 18:31 42.64279 4.46499 38929 ft 394 kts 212°
2026-05-04 18:32 42.59483 4.42910 38925 ft 394 kts 212°
2026-05-04 18:32 42.54680 4.39323 38921 ft 394 kts 212°
2026-05-04 18:33 42.49877 4.35741 38917 ft 394 kts 212°
2026-05-04 18:33 42.45068 4.32162 38913 ft 395 kts 212°
2026-05-04 18:34 42.40250 4.28582 38913 ft 395 kts 212°
2026-05-04 18:34 42.35429 4.25007 38916 ft 396 kts 212°
2026-05-04 18:35 42.30597 4.21430 38919 ft 396 kts 212°
2026-05-04 18:35 42.25756 4.17851 38920 ft 397 kts 212°
2026-05-04 18:36 42.20906 4.14274 38920 ft 398 kts 212°
2026-05-04 18:36 42.16044 4.10693 38924 ft 398 kts 212°
2026-05-04 18:37 42.11172 4.07115 38923 ft 399 kts 212°
2026-05-04 18:37 42.06290 4.03536 38925 ft 400 kts 212°
2026-05-04 18:38 42.01407 3.99963 38928 ft 400 kts 212°
2026-05-04 18:38 41.96543 3.96409 38930 ft 400 kts 212°
2026-05-04 18:39 41.91619 3.92820 38919 ft 400 kts 211°
2026-05-04 18:39 41.86656 3.89459 38921 ft 399 kts 210°
2026-05-04 18:40 41.81672 3.86152 38917 ft 400 kts 210°
2026-05-04 18:40 41.76692 3.82823 38919 ft 399 kts 210°
2026-05-04 18:41 41.71758 3.79516 38917 ft 399 kts 210°
2026-05-04 18:41 41.66790 3.76192 38915 ft 399 kts 210°
2026-05-04 18:42 41.61815 3.72870 38924 ft 400 kts 210°
2026-05-04 18:42 41.56840 3.69553 38925 ft 400 kts 210°
2026-05-04 18:43 41.51860 3.66239 38924 ft 400 kts 210°
2026-05-04 18:43 41.46881 3.62932 38926 ft 400 kts 210°
2026-05-04 18:44 41.41898 3.59627 38925 ft 400 kts 210°
2026-05-04 18:44 41.36918 3.56330 38924 ft 400 kts 210°
2026-05-04 18:45 41.31940 3.53040 38921 ft 400 kts 211°
2026-05-04 18:45 41.26925 3.49731 38923 ft 400 kts 211°
2026-05-04 18:46 41.21940 3.46448 38926 ft 400 kts 211°
2026-05-04 18:46 41.16899 3.43319 38923 ft 402 kts 206°
2026-05-04 18:47 41.11679 3.40634 38922 ft 402 kts 206°
2026-05-04 18:47 41.06466 3.37945 38922 ft 402 kts 206°
2026-05-04 18:48 41.01249 3.35252 38919 ft 402 kts 206°
2026-05-04 18:48 40.96077 3.32585 38915 ft 402 kts 206°
2026-05-04 18:49 40.90824 3.29882 38920 ft 402 kts 206°
2026-05-04 18:49 40.85642 3.27221 38921 ft 402 kts 206°
2026-05-04 18:50 40.80425 3.24545 38916 ft 402 kts 206°
2026-05-04 18:50 40.75206 3.21873 38923 ft 402 kts 206°
2026-05-04 18:51 40.69985 3.19205 38924 ft 403 kts 206°
2026-05-04 18:51 40.64758 3.16539 38927 ft 403 kts 206°
2026-05-04 18:52 40.59618 3.13662 38931 ft 399 kts 212°
2026-05-04 18:52 40.54758 3.10169 38932 ft 398 kts 213°
2026-05-04 18:53 40.49877 3.06647 38933 ft 398 kts 213°
2026-05-04 18:53 40.45014 3.03157 38939 ft 398 kts 213°
2026-05-04 18:54 40.40144 2.99671 38933 ft 398 kts 213°
2026-05-04 18:54 40.35286 2.96199 38930 ft 398 kts 213°
2026-05-04 18:55 40.30422 2.92728 38929 ft 398 kts 213°
2026-05-04 18:55 40.23142 2.87544 38931 ft 397 kts 213°
2026-05-04 18:56 40.18288 2.84095 38925 ft 397 kts 213°
2026-05-04 18:56 40.13438 2.80654 38936 ft 396 kts 213°
2026-05-04 18:57 40.08598 2.77225 38936 ft 396 kts 213°
2026-05-04 18:57 40.03746 2.73794 38933 ft 396 kts 213°
2026-05-04 18:58 39.98908 2.70378 38929 ft 395 kts 213°
2026-05-04 18:58 39.94073 2.66970 38932 ft 395 kts 213°
2026-05-04 18:59 39.89237 2.63567 38939 ft 395 kts 213°
2026-05-04 18:59 39.84401 2.60170 38939 ft 395 kts 213°
2026-05-04 19:00 39.79567 2.56779 38943 ft 395 kts 213°
2026-05-04 19:00 39.74738 2.53397 38947 ft 395 kts 213°
2026-05-04 19:01 39.70683 2.50561 38951 ft 395 kts 213°
2026-05-04 19:01 39.65843 2.47180 38954 ft 395 kts 213°
2026-05-04 19:02 39.60216 2.43244 38955 ft 395 kts 215°
2026-05-04 19:02 39.56500 2.39813 38961 ft 389 kts 225°
2026-05-04 19:03 39.52864 2.34685 38957 ft 385 kts 236°
2026-05-04 19:03 39.50080 2.28783 38951 ft 384 kts 241°
2026-05-04 19:04 39.47396 2.22796 38947 ft 384 kts 241°
2026-05-04 19:04 39.44699 2.16820 38948 ft 385 kts 241°
2026-05-04 19:05 39.41997 2.10845 38947 ft 385 kts 241°
2026-05-04 19:05 39.39292 2.04872 38943 ft 385 kts 241°
2026-05-04 19:06 39.36603 1.98944 38940 ft 385 kts 241°
2026-05-04 19:06 39.33893 1.92982 38942 ft 385 kts 241°
2026-05-04 19:07 39.31180 1.87025 38937 ft 385 kts 241°
2026-05-04 19:07 39.28465 1.81067 38937 ft 385 kts 241°
2026-05-04 19:08 39.25753 1.75114 38938 ft 385 kts 240°
2026-05-04 19:08 39.23023 1.69172 38940 ft 385 kts 240°
2026-05-04 19:09 39.20296 1.63239 38931 ft 385 kts 240°
2026-05-04 19:09 39.17570 1.57309 38932 ft 385 kts 240°
2026-05-04 19:10 39.14820 1.51339 38935 ft 384 kts 240°
2026-05-04 19:10 39.12152 1.45434 38934 ft 384 kts 244°
2026-05-04 19:11 39.10013 1.39146 38934 ft 383 kts 249°
2026-05-04 19:11 39.08084 1.32752 38935 ft 383 kts 249°
2026-05-04 19:12 39.05164 1.23175 38933 ft 383 kts 249°
2026-05-04 19:13 39.03214 1.16801 38842 ft 382 kts 249°
2026-05-04 19:13 39.02243 1.13631 38355 ft 383 kts 249°
2026-05-04 19:13 39.01261 1.10428 37491 ft 387 kts 248°
2026-05-04 19:13 39.00268 1.07194 36568 ft 391 kts 248°
2026-05-04 19:14 38.99267 1.03934 35772 ft 392 kts 248°
2026-05-04 19:14 38.98269 1.00688 35002 ft 389 kts 248°
2026-05-04 19:14 38.97277 0.97465 34035 ft 386 kts 247°
2026-05-04 19:14 38.96292 0.94267 32820 ft 386 kts 247°
2026-05-04 19:15 38.95293 0.91037 31395 ft 392 kts 247°
2026-05-04 19:15 38.94280 0.87765 30194 ft 394 kts 247°
2026-05-04 19:15 38.93279 0.84531 29285 ft 386 kts 247°
2026-05-04 19:15 38.92302 0.81377 28669 ft 373 kts 247°
2026-05-04 19:16 38.91346 0.78293 28375 ft 373 kts 247°
2026-05-04 19:16 38.90377 0.75178 28052 ft 377 kts 247°
2026-05-04 19:16 38.89404 0.72050 27472 ft 378 kts 247°
2026-05-04 19:16 38.88435 0.68940 26887 ft 376 kts 247°
2026-05-04 19:17 38.87469 0.65839 26297 ft 371 kts 247°
2026-05-04 19:17 38.86513 0.62776 25726 ft 367 kts 247°
2026-05-04 19:17 38.85571 0.59761 25150 ft 363 kts 247°
2026-05-04 19:17 38.84633 0.56762 24548 ft 360 kts 247°
2026-05-04 19:18 38.83702 0.53793 23973 ft 357 kts 247°
2026-05-04 19:18 38.82780 0.50852 23363 ft 355 kts 247°
2026-05-04 19:18 38.81913 0.47913 22813 ft 350 kts 251°
2026-05-04 19:18 38.81273 0.44933 22514 ft 344 kts 253°
2026-05-04 19:19 38.80655 0.41948 22225 ft 349 kts 253°
2026-05-04 19:19 38.80023 0.38939 21911 ft 349 kts 253°
2026-05-04 19:19 38.79394 0.35951 21578 ft 346 kts 253°
2026-05-04 19:19 38.78767 0.32981 21267 ft 344 kts 253°
2026-05-04 19:20 38.78143 0.30028 20948 ft 343 kts 253°
2026-05-04 19:20 38.77519 0.27076 20631 ft 343 kts 253°
2026-05-04 19:20 38.76897 0.24133 20309 ft 342 kts 253°
2026-05-04 19:20 38.76275 0.21195 19999 ft 341 kts 253°
2026-05-04 19:21 38.75656 0.18275 19692 ft 339 kts 253°
2026-05-04 19:21 38.75040 0.15372 19382 ft 338 kts 253°
2026-05-04 19:21 38.74423 0.12470 19074 ft 337 kts 253°
2026-05-04 19:21 38.73808 0.09583 18761 ft 337 kts 253°
2026-05-04 19:22 38.73192 0.06693 18453 ft 335 kts 253°
2026-05-04 19:22 38.72578 0.03816 18145 ft 334 kts 253°
2026-05-04 19:22 38.71968 0.00960 17833 ft 333 kts 253°
2026-05-04 19:22 38.71354 -0.01910 17523 ft 334 kts 253°
2026-05-04 19:23 38.70744 -0.04756 17226 ft 332 kts 253°
2026-05-04 19:23 38.70133 -0.07606 16911 ft 331 kts 254°
2026-05-04 19:23 38.69523 -0.10443 16629 ft 330 kts 254°
2026-05-04 19:23 38.68916 -0.13270 16339 ft 330 kts 253°
2026-05-04 19:24 38.68303 -0.16104 16019 ft 329 kts 254°
2026-05-04 19:24 38.67699 -0.18897 15740 ft 324 kts 254°
2026-05-04 19:24 38.67108 -0.21638 15610 ft 313 kts 254°
2026-05-04 19:24 38.66543 -0.24255 15480 ft 296 kts 254°
2026-05-04 19:25 38.66013 -0.26712 15332 ft 277 kts 254°
2026-05-04 19:25 38.65517 -0.29011 15191 ft 259 kts 254°
2026-05-04 19:25 38.65052 -0.31162 15021 ft 244 kts 254°
2026-05-04 19:25 38.64604 -0.33226 14589 ft 240 kts 254°
2026-05-04 19:26 38.64156 -0.35287 14062 ft 241 kts 254°
2026-05-04 19:26 38.63712 -0.37324 13762 ft 236 kts 255°
2026-05-04 19:26 38.63263 -0.39389 13525 ft 243 kts 255°
2026-05-04 19:26 38.62815 -0.41445 13309 ft 239 kts 255°
2026-05-04 19:27 38.62368 -0.43497 13085 ft 240 kts 254°
2026-05-04 19:27 38.61919 -0.45558 12862 ft 241 kts 255°
2026-05-04 19:27 38.61468 -0.47618 12643 ft 241 kts 255°
2026-05-04 19:27 38.61017 -0.49682 12404 ft 238 kts 255°
2026-05-04 19:28 38.60575 -0.51706 12190 ft 237 kts 255°
2026-05-04 19:28 38.60125 -0.53759 11969 ft 241 kts 255°
2026-05-04 19:28 38.59675 -0.55809 11741 ft 239 kts 255°
2026-05-04 19:28 38.59227 -0.57851 11518 ft 239 kts 255°
2026-05-04 19:29 38.58778 -0.59890 11290 ft 238 kts 255°
2026-05-04 19:29 38.58328 -0.61936 10899 ft 240 kts 255°
2026-05-04 19:29 38.57877 -0.63986 10441 ft 238 kts 255°
2026-05-04 19:29 38.57442 -0.65961 9979 ft 236 kts 255°
2026-05-04 19:30 38.56997 -0.67980 9491 ft 236 kts 255°
2026-05-04 19:30 38.56551 -0.70006 9039 ft 236 kts 255°
2026-05-04 19:30 38.56112 -0.71995 8815 ft 234 kts 255°
2026-05-04 19:30 38.55664 -0.74020 8701 ft 238 kts 255°
2026-05-04 19:31 38.55212 -0.76060 8377 ft 238 kts 255°
2026-05-04 19:31 38.54761 -0.78093 8047 ft 238 kts 255°
2026-05-04 19:31 38.54316 -0.80098 7825 ft 233 kts 255°
2026-05-04 19:31 38.53690 -0.81978 7603 ft 229 kts 237°
2026-05-04 19:32 38.52694 -0.83618 7506 ft 238 kts 233°
2026-05-04 19:32 38.51632 -0.85217 7399 ft 236 kts 231°
2026-05-04 19:32 38.50521 -0.86741 7296 ft 235 kts 229°
2026-05-04 19:32 38.49349 -0.88201 7186 ft 237 kts 226°
2026-05-04 19:33 38.48111 -0.89593 7082 ft 236 kts 223°
2026-05-04 19:33 38.46824 -0.90899 6972 ft 237 kts 220°
2026-05-04 19:33 38.45483 -0.92125 6881 ft 237 kts 217°
2026-05-04 19:33 38.44095 -0.93264 6764 ft 238 kts 215°
2026-05-04 19:34 38.42661 -0.94316 6653 ft 238 kts 212°
2026-05-04 19:34 38.41177 -0.95270 6550 ft 239 kts 208°
2026-05-04 19:34 38.39646 -0.96110 6437 ft 240 kts 206°
2026-05-04 19:34 38.38061 -0.96798 6324 ft 242 kts 194°
2026-05-04 19:35 38.36360 -0.96767 6130 ft 250 kts 169°
2026-05-04 19:35 38.34811 -0.95786 5955 ft 255 kts 140°
2026-05-04 19:35 38.33785 -0.93930 5734 ft 261 kts 113°
2026-05-04 19:35 38.33257 -0.91716 5400 ft 262 kts 102°
2026-05-04 19:36 38.32923 -0.89442 5055 ft 261 kts 100°
2026-05-04 19:36 38.32606 -0.87168 4717 ft 260 kts 101°
2026-05-04 19:36 38.32287 -0.84909 4376 ft 260 kts 100°
2026-05-04 19:36 38.31967 -0.82645 4025 ft 259 kts 101°
2026-05-04 19:37 38.31655 -0.80431 3694 ft 249 kts 101°
2026-05-04 19:37 38.31355 -0.78297 3367 ft 240 kts 101°
2026-05-04 19:37 38.31067 -0.76250 3063 ft 230 kts 101°
2026-05-04 19:37 38.30790 -0.74278 2781 ft 221 kts 101°
2026-05-04 19:38 38.30530 -0.72422 2504 ft 206 kts 101°
2026-05-04 19:38 38.30286 -0.70682 2240 ft 195 kts 100°
2026-05-04 19:38 38.30054 -0.69022 1990 ft 184 kts 100°
2026-05-04 19:38 38.29839 -0.67487 1742 ft 168 kts 100°
2026-05-04 19:39 38.29643 -0.66082 1536 ft 153 kts 99°
2026-05-04 19:39 38.29466 -0.64814 1336 ft 139 kts 100°
2026-05-04 19:39 38.29298 -0.63610 1158 ft 138 kts 100°
2026-05-04 19:39 38.29131 -0.62409 972 ft 136 kts 99°
2026-05-04 19:40 38.28965 -0.61234 778 ft 134 kts 99°
2026-05-04 19:40 38.28802 -0.60070 608 ft 133 kts 97°
2026-05-04 19:40 38.28654 -0.58914 431 ft 131 kts 98°
2026-05-04 19:40 38.28494 -0.57779 258 ft 130 kts 98°
2026-05-04 19:41 38.28337 -0.56663 126 ft 123 kts 97°
2026-05-04 19:41 38.28226 -0.55854 104 ft 47 kts 99°
2026-05-04 19:41 38.28226 -0.55624 100 ft 24 kts 83°
2026-05-04 19:41 38.28269 -0.55460 95 ft 12 kts 69°
2026-05-04 19:42 38.28288 -0.55394 92 ft 9 kts 71°
2026-05-04 19:42 38.28298 -0.55360 93 ft 5 kts 70°
2026-05-04 19:42 38.28319 -0.55361 91 ft 4 kts 321°
2026-05-04 19:42 38.28335 -0.55396 92 ft 5 kts 284°
2026-05-04 19:43 38.28347 -0.55470 94 ft 12 kts 281°
2026-05-04 19:43 38.28362 -0.55579 99 ft 12 kts 281°
2026-05-04 19:43 38.28407 -0.55608 100 ft 8 kts 349°
2026-05-04 19:43 38.28466 -0.55596 100 ft 10 kts 18°
2026-05-04 19:44 38.28488 -0.55529 100 ft 2 kts 99°
2026-05-04 19:44 38.28493 -0.55522 101 ft 0 kts 36°
2026-05-04 19:44 38.28516 -0.55516 100 ft 9 kts 11°
2026-05-04 19:44 38.28564 -0.55506 100 ft 2 kts 10°
2026-05-04 19:45 38.28568 -0.55505 98 ft 0 kts 10°